Theta_e
309 310 311 312 312 311 312 312 312 311 311 311 311 310 311 312 313 313 314 315 316 317 316 314 314 313 312 312 313 313 314 314 314 314 314 315 315 314 314 314 314 314 314 314 313 313 313 314 314 315 315 316 315 315 315 315 315 315 315 316 317 318 317 317 317 317 318 318 318 317 317 317 316 316 316 316 316 316 316 316 316 316 316 317 317 317
307 308 310 311 311 311 310 311 312 311 311 310 310 310 310 310 311 311 311 313 314 315 314 313 313 312 312 312 312 313 313 314 314 314 314 314 314 314 314 314 314 314 314 314 313 313 313 314 314 315 315 315 315 314 315 315 315 315 316 317 317 317 317 317 317 317 317 317 317 316 316 316 315 315 316 316 316 316 317 316 316 316 316 316 317 317
305 306 308 310 311 310 309 310 311 312 312 311 310 310 310 309 309 308 308 309 311 312 312 312 312 311 311 311 311 312 312 312 313 313 313 313 313 314 314 314 314 314 314 314 313 313 313 313 314 314 314 314 314 314 314 314 315 315 316 316 316 317 316 316 316 316 316 315 315 315 315 315 315 315 315 316 316 316 316 316 316 316 316 316 316 317
305 306 307 309 310 309 309 309 310 311 311 311 310 310 310 309 308 307 306 307 308 309 310 310 310 310 310 309 309 310 310 311 311 312 312 312 313 313 313 314 314 314 314 313 313 313 313 313 314 313 313 313 313 313 313 313 314 314 314 315 315 315 315 315 314 314 314 313 313 313 314 314 315 315 315 316 316 316 316 316 316 316 316 316 316 316
306 306 306 308 308 308 308 309 309 309 310 309 309 309 309 308 307 305 305 306 306 306 306 307 308 308 308 308 308 308 309 310 310 310 311 311 312 312 313 313 313 313 313 313 313 313 313 313 313 313 313 312 312 312 312 312 312 313 313 313 313 313 313 313 313 313 312 312 312 312 313 314 314 314 314 315 315 315 316 316 316 316 316 316 316 317
306 307 307 307 307 305 305 306 307 308 308 307 308 308 307 306 305 304 303 303 303 304 304 304 304 305 306 306 307 307 308 308 308 309 309 310 310 311 311 312 312 312 312 312 313 313 313 313 313 312 312 312 311 311 311 311 311 311 311 311 311 312 312 312 311 311 311 311 312 312 312 313 313 313 314 314 314 315 315 315 315 316 316 316 316 316
306 306 306 306 304 303 302 303 305 306 306 305 305 305 305 304 304 304 303 302 302 302 301 301 301 302 303 303 305 306 306 307 307 307 307 308 309 309 310 310 311 311 311 312 312 313 313 313 313 312 312 311 311 311 311 311 311 311 311 311 311 311 311 311 311 311 311 310 311 311 311 312 312 312 313 313 313 313 314 314 314 314 314 314 315 315
305 305 304 303 301 300 300 301 303 305 305 304 303 302 302 302 302 302 302 302 301 300 300 300 300 300 301 301 303 304 305 306 306 306 306 307 307 308 309 309 310 311 311 311 312 312 313 313 313 312 311 311 311 311 311 310 310 310 310 310 310 311 311 311 311 310 310 310 310 310 310 310 310 311 311 311 312 312 312 313 313 312 312 312 312 312
305 303 303 303 301 300 299 300 302 304 304 304 303 302 301 301 300 300 300 300 300 300 300 299 299 299 299 300 301 302 304 305 305 305 305 306 306 307 307 308 309 310 310 310 311 312 313 313 313 312 311 311 311 310 310 309 309 309 309 309 310 310 311 310 310 310 310 309 309 309 309 309 309 309 309 310 310 310 310 311 311 311 311 311 310 310
305 304 303 303 302 301 300 300 301 303 304 304 304 304 303 301 299 299 299 299 299 299 299 300 299 299 298 299 300 301 302 303 305 305 306 305 305 306 306 307 308 309 309 309 310 311 312 312 312 311 311 311 310 310 309 309 308 308 308 309 309 309 310 310 310 309 309 309 309 308 308 308 308 308 308 308 308 308 308 308 309 309 309 309 309 308
305 304 303 302 302 302 301 301 301 302 303 304 304 304 304 302 301 300 299 299 298 298 298 299 299 299 298 298 299 299 300 301 302 303 304 303 303 304 304 305 305 306 307 308 309 310 311 312 311 311 310 310 310 309 308 308 308 308 308 308 309 309 309 309 309 309 309 308 308 308 308 307 307 307 307 306 306 306 306 306 306 306 307 307 307 307
305 304 303 302 302 301 301 300 300 301 302 302 302 302 302 303 303 302 301 300 299 298 297 296 297 297 297 296 297 298 299 299 300 300 301 301 301 302 302 303 304 305 306 307 308 308 310 310 310 310 310 310 309 308 308 307 307 307 307 308 308 309 309 309 309 308 308 308 307 307 307 306 306 306 305 305 305 304 304 304 304 305 305 305 305 305
305 304 303 302 301 301 300 299 299 299 300 300 301 301 301 302 304 304 304 302 301 299 297 296 295 294 294 294 295 296 297 298 299 299 299 299 299 299 299 301 302 304 305 306 306 307 309 310 310 309 309 309 308 308 307 307 307 307 307 308 308 308 308 308 308 308 307 307 306 306 306 305 305 305 304 304 303 303 303 303 303 303 303 304 304 304
304 304 303 302 301 301 300 299 298 298 299 301 302 303 303 303 304 304 304 302 301 299 297 295 294 293 292 292 293 294 296 297 298 298 297 297 297 297 297 300 302 303 304 305 305 307 309 310 309 309 309 308 308 307 307 307 307 307 307 307 307 308 308 307 307 307 307 306 306 305 305 305 304 304 303 303 302 302 302 302 302 302 302 302 302 303
304 303 302 301 301 301 300 299 299 300 301 302 304 304 304 303 303 303 303 300 298 297 296 295 294 293 292 292 292 293 294 296 297 297 296 296 296 296 296 299 301 303 304 305 305 307 309 309 309 309 309 309 308 308 307 307 307 307 307 307 307 307 307 307 306 306 306 305 305 304 304 304 304 303 303 302 302 302 301 301 301 301 301 301 301 301
305 304 303 302 301 301 301 301 301 301 302 303 304 304 303 302 302 302 302 299 297 295 295 295 294 294 294 293 292 292 293 296 297 298 297 296 295 295 296 298 300 302 304 304 305 307 309 309 309 309 309 308 307 307 307 307 307 307 307 307 307 306 306 306 306 305 305 305 304 304 303 303 303 302 302 301 301 301 300 300 300 300 300 300 300 300
305 305 304 303 302 302 302 302 302 303 303 304 304 304 303 302 302 302 302 298 297 296 296 296 296 295 295 294 293 292 293 295 298 298 297 296 295 295 295 297 299 302 303 303 303 304 305 308 309 308 308 308 307 307 307 307 307 307 307 306 306 306 305 305 305 305 304 304 304 303 303 302 302 302 301 301 300 300 300 300 300 299 299 299 299 299
307 306 306 305 303 303 302 303 303 304 304 304 304 303 303 303 303 302 301 299 297 297 297 298 298 298 298 296 294 293 293 296 298 298 297 295 294 294 294 296 298 300 300 299 299 299 300 305 307 308 308 307 307 307 307 307 307 307 306 306 305 305 305 305 305 304 304 304 303 303 302 302 302 301 300 300 300 300 299 299 299 299 299 299 299 299
307 307 307 306 305 305 303 303 304 304 304 304 303 302 302 302 302 301 301 299 298 298 298 299 300 300 300 299 296 294 294 296 298 298 297 295 294 293 294 296 297 298 298 297 297 297 298 301 305 307 308 307 307 307 307 307 306 306 306 305 305 305 304 304 304 304 304 303 303 302 302 301 301 300 300 300 300 299 299 299 299 299 299 299 298 298
308 308 308 308 307 305 304 304 305 305 305 304 303 302 301 301 301 301 300 300 300 300 300 300 300 301 301 297 295 293 294 297 298 298 297 294 293 292 293 296 297 297 296 295 295 295 296 300 303 306 306 306 306 306 306 306 306 306 305 305 305 304 304 304 304 304 303 303 303 302 301 301 301 300 300 299 299 299 299 299 299 299 299 299 298 298
309 309 310 310 309 306 305 305 306 306 306 305 303 302 301 301 300 300 300 300 300 300 300 300 300 300 299 295 293 293 295 297 298 298 296 294 292 292 291 294 296 296 294 294 294 295 296 299 302 305 306 306 306 306 306 306 306 306 305 305 304 304 304 304 303 303 303 302 302 302 301 301 300 300 299 299 299 299 299 299 299 299 298 298 298 298
311 310 311 311 310 309 307 306 307 307 307 305 303 302 302 301 300 300 300 300 300 300 300 300 298 296 294 293 292 293 296 297 298 298 296 294 292 291 291 292 294 295 293 293 293 294 295 297 300 303 306 306 306 306 306 306 306 305 305 304 304 304 304 304 303 303 303 302 302 302 301 300 300 300 300 299 299 299 299 299 299 299 299 299 298 298
313 312 312 312 311 310 308 308 307 307 307 305 304 304 303 303 302 301 301 301 301 300 299 294 292 291 291 291 291 292 293 294 296 298 297 294 293 291 290 291 293 294 292 292 292 293 294 295 296 300 305 306 306 306 305 305 305 305 304 304 304 304 303 303 303 303 303 302 302 301 301 301 300 300 300 299 299 299 299 299 299 299 299 299 299 299
314 313 313 313 312 311 309 308 308 307 307 306 306 305 304 304 304 303 303 302 300 297 293 291 290 290 289 290 290 290 290 291 293 295 298 295 293 291 290 292 293 293 291 291 292 292 293 292 293 295 299 303 305 305 305 305 305 304 304 304 304 303 303 303 303 302 302 302 302 301 301 301 301 300 300 300 299 299 299 299 299 299 299 299 299 299
314 314 313 313 312 311 310 309 308 308 307 306 306 305 304 304 303 301 300 299 297 294 292 292 291 290 289 290 290 289 290 290 291 294 298 295 292 290 290 291 292 292 290 290 291 292 291 291 291 292 293 297 301 304 304 304 304 304 304 304 303 303 303 303 303 302 302 302 302 302 301 301 301 301 300 300 300 300 300 300 300 300 300 300 299 299
314 313 313 312 311 310 309 309 308 308 307 306 306 304 302 301 299 298 297 295 294 293 293 293 292 291 290 290 290 290 290 290 291 293 297 295 292 290 289 290 292 291 289 290 291 291 291 290 289 289 289 291 296 300 303 303 304 304 304 303 303 303 303 302 302 302 302 302 302 302 301 302 301 301 301 301 301 301 300 300 300 300 300 300 300 300
311 311 310 310 309 309 308 308 308 307 307 307 305 304 301 300 298 296 295 294 294 294 294 294 292 291 290 290 290 290 290 290 290 292 295 295 292 290 288 290 291 291 289 289 290 290 290 289 288 288 288 288 291 295 300 302 303 303 303 303 303 302 302 302 302 302 302 302 301 301 301 301 301 301 301 300 300 300 300 300 300 300 300 300 300 300
309 309 309 308 308 308 307 307 307 307 307 307 305 304 302 301 299 297 295 295 296 296 296 295 293 292 291 290 290 290 290 290 291 291 293 295 293 290 289 290 291 290 289 288 288 289 289 287 287 287 287 287 289 291 296 299 301 301 301 301 301 301 301 301 301 301 301 301 300 300 300 300 299 299 299 298 298 298 298 298 298 298 299 299 299 299
307 307 308 308 308 307 307 308 308 307 307 306 305 304 304 303 301 300 298 297 297 297 297 296 295 293 292 291 290 289 289 290 291 292 293 295 293 290 289 290 290 290 289 288 288 288 287 286 286 286 286 287 288 289 291 294 296 298 298 299 299 299 299 298 299 299 299 298 298 298 298 298 297 297 296 296 296 296 296 296 296 297 298 298 298 298
307 307 307 308 308 308 308 308 308 307 307 306 305 304 304 304 303 302 300 299 298 297 297 297 296 294 292 290 289 288 289 290 291 293 294 294 292 290 289 289 290 290 290 289 289 288 286 286 285 285 286 287 287 287 288 290 291 293 294 295 295 296 296 296 296 296 296 296 296 296 295 295 295 295 294 294 294 294 294 294 294 295 296 296 296 296
306 307 307 307 307 308 307 307 307 307 306 305 305 304 303 303 303 302 300 300 299 299 298 297 296 294 292 291 290 289 289 291 292 293 294 294 292 290 289 289 290 291 292 292 291 289 287 286 285 286 286 287 287 287 287 288 289 290 290 290 291 292 293 293 293 293 294 294 294 293 293 293 293 293 293 292 293 292 293 293 293 293 294 295 294 294
303 303 304 304 304 304 304 304 304 304 304 303 302 302 301 301 301 301 300 300 300 300 299 297 296 294 294 293 293 292 292 291 292 294 294 294 292 290 290 290 290 290 291 292 292 292 289 287 286 285 286 286 286 287 287 288 288 288 289 288 288 289 290 291 291 291 291 291 291 291 291 291 291 291 291 291 291 291 291 292 292 292 292 292 292 292
300 300 300 300 300 299 299 300 300 300 299 298 298 298 298 299 299 300 299 300 300 300 299 297 296 295 295 295 294 293 292 292 293 294 295 293 291 290 290 290 290 289 288 288 290 292 292 289 287 285 285 285 286 286 286 287 287 287 288 287 287 287 288 289 289 289 289 289 289 289 289 289 289 290 290 290 290 290 291 291 291 291 290 290 290 290
298 297 297 297 296 296 296 296 296 295 295 294 294 295 295 296 296 297 297 297 297 298 299 297 296 296 295 294 292 290 290 291 293 295 295 293 292 291 290 290 290 289 288 288 288 290 290 289 287 285 285 285 285 285 285 286 286 286 287 286 286 286 287 287 288 288 288 288 288 288 288 288 288 289 289 289 289 290 290 290 290 290 290 289 289 289
295 295 294 294 294 293 293 293 292 292 292 292 292 292 293 293 293 293 293 293 293 293 294 295 295 295 295 293 291 289 288 290 293 295 295 293 292 291 291 290 290 290 289 289 289 289 288 288 287 286 285 284 284 284 285 284 285 285 285 286 285 285 285 285 286 286 286 287 287 287 286 286 287 287 287 288 288 288 289 289 289 290 290 290 289 288
293 293 293 292 292 292 291 291 290 290 290 289 289 290 290 290 290 289 289 289 289 289 289 289 290 291 293 293 292 290 289 290 292 294 294 293 292 292 291 291 291 291 291 290 289 288 288 288 288 287 287 285 284 283 283 284 284 284 284 285 284 284 284 285 285 285 285 285 285 285 285 285 285 285 286 287 287 288 288 288 289 289 290 290 290 289
292 292 292 291 291 291 290 289 289 288 288 287 287 288 288 288 288 288 287 287 287 287 287 287 287 288 290 291 291 291 290 291 291 292 292 292 292 293 292 292 292 292 292 291 290 289 288 287 287 287 287 286 285 283 283 283 283 284 284 284 284 284 283 284 284 284 284 284 284 284 285 284 284 285 285 286 287 287 287 288 288 289 289 289 290 290
292 291 291 290 290 290 289 288 287 287 286 286 286 286 286 286 286 286 286 286 286 286 285 285 285 285 287 287 287 287 287 287 287 287 287 289 291 292 291 292 292 292 292 291 291 290 289 288 287 287 287 287 286 284 283 282 283 283 283 283 283 283 283 283 283 283 283 283 284 284 284 284 284 284 284 285 285 285 285 286 287 288 288 289 289 289
291 290 290 290 289 289 288 287 286 286 285 285 285 285 285 285 285 285 285 285 284 284 284 283 283 283 283 283 283 283 283 282 282 282 284 286 288 291 291 291 291 291 290 291 291 291 290 289 288 288 287 286 285 284 284 283 283 283 283 283 283 283 283 283 283 282 282 282 283 283 284 283 283 283 283 283 283 283 284 284 285 286 286 286 287 288
290 290 289 289 289 288 287 286 285 285 284 285 285 285 285 285 285 284 284 284 284 283 283 283 282 282 282 283 283 282 282 282 282 283 283 285 287 289 290 290 289 289 289 290 291 291 291 290 290 289 288 286 284 283 283 283 283 283 283 282 282 282 283 282 282 281 282 281 281 282 282 282 282 282 282 282 282 282 283 283 284 284 285 284 283 284
290 289 288 288 287 286 285 285 284 284 284 285 285 285 285 285 284 283 283 283 283 283 283 283 282 282 281 281 281 281 281 282 283 283 283 285 286 288 288 288 288 288 288 288 289 290 291 290 290 288 287 286 285 284 283 283 284 284 284 282 282 282 282 282 282 281 281 281 281 281 282 282 282 282 282 282 282 282 283 282 282 283 283 283 283 282
289 288 286 285 285 284 283 284 284 285 285 285 285 285 285 285 284 284 283 283 283 283 283 283 282 281 280 280 280 280 281 281 282 283 283 284 285 286 286 286 286 286 287 287 287 287 288 288 288 287 286 285 284 283 282 283 284 285 285 283 282 282 282 282 281 281 281 281 281 281 282 281 281 281 281 281 281 282 283 282 282 283 283 283 283 282
288 286 285 284 284 284 284 285 285 285 286 285 285 285 285 285 285 285 284 284 283 284 284 284 283 282 280 280 279 280 280 280 281 282 283 283 284 285 285 285 285 286 286 286 285 285 285 286 285 285 285 285 284 283 282 282 283 283 283 283 283 281 280 280 280 280 281 281 281 281 280 280 280 280 281 281 281 282 282 283 283 284 284 283 283 283
286 284 284 284 284 284 285 285 285 285 285 285 285 285 285 286 286 286 285 285 284 284 284 284 283 282 281 280 279 279 279 280 281 282 283 284 284 284 284 285 285 285 285 285 284 284 283 283 283 283 283 284 284 283 282 282 281 281 281 283 283 282 280 280 280 280 280 281 281 280 280 280 280 280 280 281 281 281 282 281 281 282 283 283 282 282
284 283 284 284 284 285 285 285 285 285 285 285 284 284 285 286 286 286 285 285 284 284 284 284 284 282 280 280 279 279 279 280 280 281 281 283 284 284 283 283 283 284 284 284 284 283 282 281 281 282 283 284 283 283 282 281 281 281 281 282 282 281 281 281 281 280 280 280 280 280 279 279 279 279 280 280 281 281 281 281 281 281 282 282 282 282
283 283 284 284 284 285 285 285 285 285 284 284 284 285 285 286 286 286 286 285 284 284 284 285 284 282 281 280 280 280 279 279 279 280 280 280 281 282 282 282 283 283 283 283 283 283 283 282 281 282 282 283 283 282 282 281 281 280 281 281 281 280 280 280 280 280 280 279 279 279 279 279 279 279 280 280 280 280 281 281 281 281 281 281 282 282
283 284 284 284 284 284 284 285 285 285 284 284 284 285 285 285 286 286 285 285 285 285 285 284 284 282 281 281 280 280 279 279 279 279 279 279 280 280 281 281 282 282 282 282 282 282 282 282 282 282 282 282 281 281 281 281 281 280 280 280 280 280 279 279 279 279 279 279 278 277 277 277 278 279 280 280 280 280 280 281 281 281 281 281 282 282
284 284 284 284 284 284 284 284 284 284 284 284 284 285 285 285 285 285 285 285 286 285 285 284 283 282 281 281 281 281 280 280 279 279 279 279 279 279 280 280 281 282 282 282 282 282 282 282 282 282 282 282 281 280 280 281 281 281 280 280 280 280 279 279 279 279 279 278 276 275 275 277 278 278 279 279 280 280 280 281 281 281 282 282 281 281
284 284 284 284 284 284 284 284 284 284 284 283 284 284 285 286 286 286 285 286 286 285 285 284 283 282 282 282 282 282 281 280 280 279 279 279 279 279 280 280 280 281 281 281 282 282 282 282 282 283 283 282 282 281 280 280 280 280 280 280 280 280 280 279 279 279 279 277 274 273 274 277 278 278 278 278 279 280 280 280 280 281 281 282 282 281
285 285 285 284 284 284 284 284 284 284 284 284 284 284 284 285 286 286 286 286 286 285 285 284 283 282 282 282 282 282 281 281 280 279 279 279 280 280 280 280 280 280 280 280 281 281 281 281 282 283 284 284 283 282 280 280 279 279 279 280 280 280 280 279 279 279 279 278 276 275 274 276 278 279 279 278 279 280 280 280 281 281 282 282 282 282
285 285 285 285 285 284 284 285 284 284 284 284 284 284 284 285 285 286 286 286 286 285 285 284 284 283 282 282 282 282 282 281 280 279 279 280 280 280 280 281 281 281 280 280 280 280 279 279 279 280 282 284 284 283 281 280 279 279 279 279 279 279 279 279 279 279 280 279 278 277 277 277 278 279 279 278 278 279 279 280 280 281 282 282 282 282
Wind_Speed
3 4 4 7 7 6 6 8 8 8 8 7 7 6 5 5 5 5 6 6 7 8 9 9 9 8 9 8 8 8 9 9 9 10 10 10 11 11 11 11 12 12 12 12 12 11 11 11 10 10 10 10 9 9 8 7 6 6 7 8 9 9 9 8 8 8 8 10 11 12 13 13 12 12 11 11 12 12 12 12 12 12 12 11 10 10
3 3 4 7 7 6 5 7 8 8 9 9 8 7 7 6 5 4 4 4 6 8 9 9 9 9 9 8 8 8 8 8 8 9 9 9 9 10 10 10 11 11 11 11 11 11 11 10 10 9 9 9 8 8 7 6 5 5 6 8 10 11 11 10 9 9 9 10 11 11 12 11 11 10 10 10 10 10 10 11 11 11 11 11 11 11
3 4 4 6 7 6 5 6 6 7 9 9 10 9 9 8 6 4 3 4 5 7 8 8 8 9 9 9 8 7 7 8 8 8 8 8 8 9 9 10 10 10 10 10 10 10 10 10 9 9 9 8 8 7 7 6 5 4 4 7 9 11 10 10 10 10 10 10 10 10 10 10 9 9 10 10 10 9 9 9 9 9 10 10 10 10
4 5 5 4 5 5 5 5 5 5 5 7 9 10 10 8 6 4 3 4 5 6 7 8 8 8 8 8 7 7 7 7 7 7 8 8 8 8 8 9 9 9 9 9 9 9 10 9 9 9 9 8 8 8 7 6 6 5 5 7 8 9 10 10 10 10 10 10 9 9 9 9 9 10 10 10 9 8 8 7 7 7 8 8 9 9
5 5 5 4 4 3 4 4 4 4 4 5 7 8 8 6 5 4 3 3 5 6 6 7 7 7 6 6 7 7 7 7 7 7 7 7 7 8 8 8 8 8 8 9 9 9 9 9 9 9 9 9 9 8 8 7 7 7 7 8 9 9 10 10 10 9 9 9 8 8 9 10 10 10 10 10 10 9 8 7 6 6 6 7 7 8
5 4 4 4 3 3 3 3 4 4 4 4 5 6 6 5 5 4 3 3 3 4 5 5 5 6 6 6 7 7 7 7 6 6 6 6 6 7 7 7 7 7 7 8 8 8 9 9 9 9 9 9 9 9 8 8 8 8 8 9 9 10 10 10 9 9 8 8 8 8 9 9 10 10 10 11 11 10 10 9 8 7 7 7 7 8
5 4 3 2 2 2 3 3 3 4 4 4 4 4 5 5 5 4 3 2 3 3 4 4 4 5 6 6 7 7 7 7 6 6 5 5 6 6 6 6 6 6 7 7 7 8 9 10 10 10 10 10 10 10 9 9 9 9 9 10 10 10 10 10 9 9 8 8 8 8 9 9 9 9 10 10 10 11 10 10 10 9 9 9 9 9
6 4 3 3 2 2 2 2 3 3 4 4 4 4 4 4 4 4 3 3 3 3 3 4 4 5 5 6 6 6 5 5 5 5 5 5 5 5 5 5 5 6 6 6 7 8 10 11 11 11 11 11 11 11 10 10 10 10 10 10 10 11 11 10 10 9 9 9 9 9 9 9 9 9 9 9 10 10 10 10 10 9 10 10 10 10
9 7 5 4 4 4 3 3 2 2 3 3 4 5 6 6 5 4 3 2 2 2 3 4 4 5 5 5 4 4 4 4 4 4 5 4 4 4 5 5 5 5 5 5 6 8 10 12 13 13 12 12 12 12 11 10 10 10 11 11 11 11 11 11 10 10 10 10 9 9 10 10 10 10 10 9 9 9 9 9 9 9 8 9 9 9
10 9 7 5 4 4 4 4 3 2 2 2 3 5 6 8 8 6 4 3 2 1 1 3 5 6 5 4 4 3 3 4 5 5 5 5 5 5 4 4 4 4 4 4 5 7 9 12 13 14 13 13 12 12 11 11 11 11 11 11 11 11 11 11 11 11 11 10 10 10 10 10 11 11 11 10 9 9 9 9 8 8 8 7 7 7
8 8 7 5 4 3 4 4 3 3 3 2 2 3 4 6 8 8 8 6 4 2 1 2 3 5 5 5 4 4 3 3 4 4 5 5 5 5 4 4 3 3 3 4 5 6 8 11 13 14 14 13 13 12 11 11 11 11 11 11 11 11 11 11 11 11 11 11 11 10 10 11 11 11 11 10 10 9 9 8 8 8 7 7 6 6
7 6 5 5 5 5 4 4 3 3 3 3 3 3 3 4 5 6 8 8 7 5 4 2 2 2 3 4 4 4 4 3 3 3 3 3 4 4 4 3 3 2 2 3 4 6 7 11 13 14 13 13 12 12 12 11 11 11 11 11 11 11 11 11 11 11 11 11 11 11 11 11 11 11 11 10 10 9 9 8 8 7 7 6 6 6
6 5 5 5 6 6 6 5 4 4 4 4 5 6 6 5 4 4 5 6 7 6 5 4 3 2 2 2 3 3 4 4 3 3 3 2 2 2 3 3 3 3 3 3 3 4 6 10 12 13 13 13 12 12 12 12 12 12 12 11 11 11 11 12 12 12 12 12 11 11 11 11 11 11 10 10 10 9 9 8 7 7 6 6 5 5
6 6 6 6 7 7 7 7 7 7 7 6 6 6 5 5 5 4 4 4 5 5 5 5 4 3 2 1 1 2 3 4 4 3 2 2 2 2 2 3 3 3 3 3 3 4 5 7 9 11 12 13 13 13 13 13 13 13 12 12 12 12 12 12 12 12 12 12 11 11 11 11 11 10 10 10 9 9 8 8 7 7 6 6 5 5
8 8 8 8 8 8 8 8 9 9 9 7 5 4 4 5 5 5 5 5 5 5 5 5 4 3 2 1 1 2 2 3 4 3 3 2 2 1 2 3 3 4 4 4 4 4 5 5 6 8 10 12 12 12 12 13 13 13 13 13 13 13 13 13 12 12 12 12 11 11 11 11 10 10 10 9 9 8 8 7 7 6 6 6 5 5
9 9 10 10 10 9 9 9 9 9 9 7 6 6 6 6 6 6 6 6 6 5 5 5 4 3 1 1 2 2 3 4 4 4 4 3 2 1 1 3 3 4 4 4 4 4 4 5 6 7 8 11 12 13 13 13 14 14 14 14 13 13 13 13 13 13 12 12 11 11 11 10 10 10 9 9 8 8 8 7 7 6 6 6 5 5
9 9 10 10 10 10 10 9 8 8 8 7 7 6 7 7 7 6 6 6 6 5 5 5 5 4 3 2 2 3 4 4 4 4 4 3 2 1 1 2 4 4 4 4 3 3 3 4 5 6 7 11 13 14 14 14 14 15 14 14 14 13 13 13 13 13 12 12 11 11 10 10 10 10 9 9 9 8 8 7 7 6 6 5 5 5
9 10 10 10 10 10 10 9 8 7 7 7 7 7 6 6 6 6 6 6 6 6 6 6 5 5 4 4 4 5 6 5 5 5 4 3 2 1 1 2 3 3 4 3 2 1 1 2 4 6 8 13 15 15 15 15 15 15 15 15 14 14 13 13 13 13 13 12 11 11 10 10 10 10 9 9 9 8 8 7 7 6 6 6 5 5
10 10 11 11 10 10 11 10 9 9 9 8 8 8 7 6 6 6 6 6 6 6 7 6 5 5 4 4 5 6 8 6 5 5 5 4 2 1 1 2 2 3 3 2 1 1 1 1 3 7 11 15 16 17 17 16 16 16 16 15 15 14 13 13 13 13 13 12 12 11 10 10 10 10 9 9 9 8 8 8 7 7 6 6 6 5
12 11 11 11 11 11 11 11 10 10 10 9 9 8 7 7 7 6 6 6 6 5 5 5 6 5 4 4 5 6 8 6 5 5 5 4 3 2 1 2 3 4 3 2 1 1 1 1 2 7 13 15 17 18 17 17 17 17 16 16 15 14 14 13 13 13 13 12 12 11 10 10 10 10 10 9 9 9 8 8 8 7 7 6 6 6
14 13 11 11 11 11 10 11 11 11 10 10 10 9 8 7 7 7 7 6 6 5 5 5 5 5 4 4 5 7 8 8 7 5 4 3 2 1 1 2 3 4 3 2 1 1 1 1 1 5 10 15 17 18 18 17 17 17 17 16 15 15 14 13 13 13 13 12 11 11 10 10 10 10 9 9 9 9 9 8 8 8 7 7 6 6
14 13 11 12 12 12 11 11 12 12 12 12 11 10 8 9 8 8 8 7 7 7 6 5 3 2 3 4 5 6 7 7 7 6 5 4 3 2 1 1 3 4 3 2 1 1 1 2 0 3 9 15 17 18 18 17 17 17 17 16 15 15 14 13 13 13 12 12 11 11 10 10 10 9 9 9 9 9 9 8 8 8 8 7 7 6
12 12 10 11 11 11 12 12 12 12 12 12 12 10 8 9 10 10 9 8 7 6 5 4 4 4 4 4 4 4 4 3 4 5 6 5 5 4 2 2 3 3 3 2 1 1 2 2 2 2 6 13 16 17 17 17 17 16 16 16 15 15 14 13 13 13 12 12 11 10 10 9 9 9 9 9 9 9 9 8 8 8 8 7 7 7
11 12 10 10 10 11 12 12 12 11 10 10 8 7 7 7 7 6 6 6 6 6 6 6 6 5 4 4 4 3 3 2 2 3 4 5 5 4 3 3 3 4 3 2 1 2 2 3 3 3 3 8 12 15 16 16 16 16 16 15 15 14 14 13 13 12 12 11 10 10 9 9 9 9 9 9 9 9 9 8 8 8 8 7 7 7
10 11 10 10 10 12 13 14 14 13 12 10 8 7 6 6 6 6 5 6 6 7 7 7 6 4 3 4 4 3 3 2 2 2 4 4 4 4 3 3 4 4 3 2 1 2 3 3 3 4 4 4 6 10 14 15 15 15 15 14 14 13 13 12 12 11 11 10 10 9 9 9 9 9 9 9 9 9 9 9 8 8 8 8 8 8
11 11 12 12 14 17 19 19 19 19 17 13 10 9 8 8 8 8 7 6 7 7 8 7 5 4 4 4 4 4 4 3 3 2 3 5 5 4 3 2 3 4 4 2 2 2 3 3 3 3 4 4 3 5 9 13 14 14 14 14 13 13 12 12 11 10 10 9 8 8 8 8 8 8 8 8 8 8 8 8 8 8 8 8 8 8
14 15 17 18 19 21 23 24 25 25 24 20 16 13 11 10 9 8 7 7 8 8 8 7 6 5 4 4 4 4 4 4 3 2 2 5 6 5 3 3 4 5 5 3 2 3 4 3 3 3 3 3 4 4 6 9 11 13 13 12 12 11 11 11 10 10 9 8 7 7 6 6 6 6 5 5 5 4 4 4 5 5 6 6 6 7
18 19 20 21 22 23 25 26 27 27 27 25 23 20 15 12 11 10 9 9 9 9 8 8 7 6 5 5 5 4 4 4 4 3 3 5 6 5 4 4 4 5 5 3 3 3 5 4 3 3 3 3 3 4 5 7 9 11 11 11 11 10 10 10 10 9 9 8 7 6 6 5 5 4 4 3 3 2 2 1 1 2 3 3 3 3
19 20 22 23 24 24 25 26 26 27 28 27 26 23 17 12 11 11 10 10 9 9 8 8 7 6 6 5 4 3 4 4 4 4 3 5 5 5 5 5 5 5 5 4 3 3 3 3 2 2 2 3 3 4 4 6 7 9 10 10 10 10 10 10 9 9 9 8 7 6 5 5 5 4 4 3 3 2 1 1 0 1 2 2 2 2
14 17 18 21 22 22 22 22 23 24 27 28 26 22 15 11 9 9 10 11 11 10 9 9 8 7 6 6 5 3 4 4 5 5 4 5 5 5 5 5 5 5 5 5 4 3 2 2 2 2 2 3 3 3 3 4 4 5 7 8 8 9 9 9 9 9 8 7 6 6 5 4 4 3 3 2 2 1 1 1 1 1 1 1 1 1
10 11 12 14 15 15 15 15 16 18 22 24 22 18 12 9 8 8 10 11 11 11 10 9 9 8 8 7 6 5 5 6 6 6 5 5 5 6 7 6 6 5 5 5 5 4 3 2 1 1 2 2 2 3 2 3 3 3 3 4 5 6 8 8 8 8 7 6 6 5 4 4 3 3 2 1 1 1 1 1 2 2 2 2 2 2
8 8 8 8 9 9 9 9 10 11 13 14 13 11 9 7 7 8 9 10 11 10 10 9 9 9 9 8 8 7 6 6 7 7 6 5 5 5 6 6 6 5 3 2 3 5 5 3 2 2 1 2 2 2 2 2 2 2 3 3 3 4 6 6 6 6 6 5 5 4 4 3 3 2 2 1 1 1 1 2 2 2 2 2 2 2
8 7 7 7 7 7 6 7 7 8 8 8 7 6 6 6 6 7 7 8 8 8 9 9 10 9 9 7 6 4 4 6 8 9 8 6 5 5 6 6 6 5 2 1 1 2 4 4 4 3 2 2 2 2 2 2 2 2 2 3 3 3 4 4 4 4 4 4 4 3 3 3 2 2 1 1 1 1 1 2 2 3 3 2 2 2
9 8 8 8 7 7 7 7 7 7 7 6 6 6 5 5 6 6 6 5 5 5 7 8 9 10 9 6 4 3 3 5 8 10 8 6 6 6 6 6 6 6 4 2 2 2 3 4 5 4 3 2 2 2 2 2 2 2 2 2 2 2 2 3 3 3 3 3 3 3 3 2 2 2 1 0 0 1 2 2 3 3 3 3 2 2
9 9 9 8 8 8 7 7 7 7 7 6 6 6 6 6 6 6 6 5 5 4 4 4 5 6 8 7 6 5 5 6 8 9 7 6 6 6 7 7 7 7 6 5 4 3 4 5 6 6 5 3 3 2 2 2 2 2 2 2 3 2 2 2 2 2 2 2 2 2 2 2 2 1 1 1 0 1 2 3 3 4 4 4 3 3
9 9 9 9 9 9 8 8 8 7 7 6 6 6 6 6 6 6 6 6 7 7 7 6 4 3 3 4 6 7 7 7 8 8 7 6 6 6 6 6 7 7 6 5 5 5 5 5 6 6 6 5 3 3 2 2 2 2 2 3 3 2 2 2 1 1 1 1 2 2 1 1 1 1 0 0 1 2 2 3 4 4 4 4 4 4
10 9 8 8 9 9 9 8 8 7 7 6 6 6 6 7 7 7 7 7 8 8 8 8 8 7 7 5 5 6 7 7 7 6 5 5 5 6 6 6 6 7 6 6 6 6 6 6 6 6 5 5 4 4 4 3 3 2 2 2 2 2 2 1 1 1 1 1 1 1 1 1 1 0 0 0 1 2 3 3 4 4 4 4 4 5
10 9 8 8 8 8 9 8 7 7 7 6 7 7 7 8 8 8 8 8 9 9 9 9 9 11 13 12 11 9 8 8 7 6 5 4 4 5 5 6 6 6 5 6 6 7 6 7 6 6 5 4 4 4 5 5 4 3 3 3 3 2 2 2 1 1 1 1 1 1 1 1 0 0 0 1 1 1 2 2 3 3 3 3 4 5
10 9 9 8 8 8 8 8 8 7 7 7 7 8 8 9 10 9 9 9 10 10 11 10 10 11 13 14 14 13 11 9 8 7 5 4 3 4 6 6 6 5 4 4 5 6 7 7 6 6 6 5 4 4 4 4 5 4 4 3 3 2 2 2 2 2 1 1 1 1 1 1 0 0 0 0 1 1 1 1 1 1 1 1 2 4
10 9 9 9 8 8 8 8 8 8 8 8 9 9 9 10 9 9 9 9 10 11 12 12 11 10 11 11 11 11 10 8 7 6 5 4 3 3 5 6 6 5 4 4 4 5 6 6 6 6 6 6 5 5 4 4 5 5 6 4 2 2 2 2 2 2 1 1 1 1 1 0 0 0 0 0 0 0 1 1 1 1 1 1 1 2
10 9 8 8 7 7 7 8 8 8 9 9 9 9 9 9 9 9 9 9 9 9 10 11 11 10 10 10 10 10 9 9 8 7 5 5 5 5 5 5 5 5 5 4 4 4 4 5 5 5 5 6 6 6 5 5 6 7 6 4 3 3 3 3 2 2 1 1 1 1 1 1 0 0 0 0 0 0 1 1 1 1 1 1 1 1
11 10 9 8 7 7 7 8 9 9 9 9 9 9 9 9 9 9 9 9 8 8 8 9 10 10 10 9 9 9 9 8 8 8 8 8 7 6 5 4 4 4 5 5 5 4 4 5 5 5 5 6 6 5 4 4 5 5 5 4 4 5 4 3 2 2 2 2 2 1 1 1 1 0 0 0 0 0 0 0 1 1 1 1 1 0
10 9 9 9 9 9 10 10 10 9 8 8 8 8 8 8 8 9 10 10 9 9 9 9 9 10 10 9 8 7 8 8 8 9 9 8 8 7 5 5 4 4 5 6 6 5 4 5 5 5 5 6 6 6 6 5 4 4 4 5 5 4 2 2 2 2 2 2 2 2 1 1 0 0 1 1 1 1 1 1 1 1 1 1 1 1
9 9 9 9 9 9 9 9 8 8 8 9 8 8 7 8 9 9 9 9 9 9 9 8 9 10 11 10 9 7 6 7 8 9 9 9 9 7 6 5 5 4 4 5 5 5 5 5 5 4 4 5 6 6 6 5 4 4 3 4 4 3 3 3 3 3 2 2 2 2 1 1 0 1 1 1 1 1 1 1 1 1 1 1 1 1
10 10 9 9 9 9 9 8 8 8 8 9 9 9 8 9 9 9 8 9 9 10 9 9 9 9 9 9 8 8 7 6 6 6 7 9 10 9 8 6 6 5 5 5 4 5 5 5 4 4 3 4 5 6 6 5 5 4 3 3 4 4 4 3 3 3 2 2 2 2 1 1 0 1 2 2 2 2 2 1 1 1 1 1 0 0
10 10 10 9 9 9 9 9 9 9 9 9 9 9 8 9 8 8 9 10 10 9 9 8 8 9 10 9 9 8 7 6 5 5 5 6 6 7 7 7 7 6 6 6 5 5 5 5 5 4 4 5 5 5 5 5 5 5 4 4 4 4 4 3 3 2 2 2 2 2 1 1 1 1 1 1 1 2 2 2 1 1 1 1 1 1
11 11 10 9 9 8 8 8 9 9 10 10 10 9 8 8 8 8 8 9 9 9 9 8 8 9 10 10 9 8 8 8 7 5 5 5 5 5 5 6 7 7 7 7 7 7 7 5 4 4 4 5 5 4 4 4 5 5 4 4 4 4 3 3 3 3 3 2 2 1 1 1 1 0 0 0 1 1 2 2 1 1 1 1 0 0
12 11 10 10 9 9 8 8 9 10 10 10 10 9 9 9 9 9 8 8 8 9 9 9 9 10 10 9 8 9 9 9 8 7 6 5 4 4 5 5 6 7 8 8 8 8 8 7 6 5 3 4 4 5 4 4 4 4 4 4 4 4 4 3 3 3 3 2 2 1 0 0 0 1 1 1 0 1 2 2 2 2 1 1 1 1
10 10 10 10 10 10 9 9 9 10 11 11 11 10 9 9 10 10 8 8 8 8 8 10 10 10 10 9 8 9 9 9 8 7 6 5 4 4 4 5 5 6 6 7 7 7 7 7 8 7 6 4 4 5 5 4 4 4 4 4 4 4 4 4 3 3 3 2 2 1 0 0 0 1 1 1 0 0 1 2 2 2 2 2 1 1
9 9 9 9 10 10 10 10 10 10 11 11 11 11 9 8 7 7 7 7 7 7 8 9 10 10 10 10 9 9 9 9 8 7 6 5 5 4 4 5 5 5 5 5 4 4 4 5 6 7 9 8 5 4 4 5 4 4 3 3 3 3 4 4 3 3 3 3 2 2 1 1 0 0 0 1 1 0 0 1 2 2 2 2 1 1
9 8 8 9 9 9 9 10 10 10 11 11 11 11 10 8 7 6 6 6 7 7 8 8 9 10 10 10 10 10 10 9 9 8 7 5 5 5 5 5 5 5 5 4 4 3 3 3 3 4 6 8 8 5 3 4 4 4 3 3 3 3 3 3 3 3 3 3 2 2 2 1 1 1 1 1 1 1 0 1 1 1 1 1 1 0
Wind_Direction
118 128 135 143 144 145 152 155 152 147 144 141 135 126 114 110 115 127 140 143 136 126 119 116 114 113 112 112 116 123 132 139 145 150 154 157 159 161 162 161 159 156 153 151 152 153 157 161 164 164 164 163 163 163 163 165 170 178 185 183 174 163 150 136 120 104 91 88 87 87 86 84 83 83 84 91 97 103 109 115 119 121 124 125 124 122
113 120 133 147 148 147 149 158 158 155 152 148 144 137 130 128 127 131 139 140 132 125 120 119 119 120 121 117 119 125 132 140 146 151 155 158 161 163 165 164 162 159 156 154 154 156 160 164 166 165 162 160 156 154 152 150 156 172 186 182 176 167 155 143 130 116 102 95 91 90 89 88 88 90 93 97 103 108 114 121 125 128 132 133 132 130
134 133 145 153 153 151 148 160 163 161 156 151 146 142 139 137 136 138 148 141 127 119 117 120 123 124 124 121 122 127 133 141 147 152 155 159 163 166 168 168 166 163 159 158 158 160 164 167 166 162 157 151 145 139 133 128 127 136 158 168 165 159 149 140 130 121 112 105 99 94 90 90 90 93 97 103 107 111 115 121 126 130 133 134 134 132
147 148 154 154 152 149 146 153 156 157 152 145 141 140 140 138 139 143 155 141 125 115 112 117 121 124 124 123 123 127 134 141 147 152 156 161 166 169 172 170 168 165 162 161 163 166 169 169 166 160 152 144 137 132 129 122 116 115 122 133 138 138 132 128 124 120 116 112 107 102 97 95 94 94 96 98 99 102 106 112 121 128 134 135 135 132
157 156 156 153 146 137 135 138 140 138 132 132 134 136 136 133 132 134 140 128 118 113 111 113 115 118 120 120 124 128 134 139 145 151 157 163 168 171 173 172 169 166 164 165 168 171 174 172 167 159 151 145 140 137 137 132 126 120 117 117 119 121 118 119 119 120 119 117 113 110 105 103 101 99 97 95 93 91 90 94 101 111 122 129 131 130
159 155 153 150 139 124 119 126 130 130 127 128 129 129 126 123 122 123 129 121 113 110 108 107 107 108 108 111 119 127 133 138 143 149 157 164 170 173 174 172 169 167 167 170 175 179 181 176 170 162 155 150 148 149 149 145 139 133 127 124 123 122 122 123 124 123 122 119 115 112 109 107 105 103 101 98 95 91 87 85 84 86 93 102 109 113
149 144 143 132 115 105 104 121 132 138 139 136 130 123 117 115 116 119 128 127 120 113 109 106 102 99 98 101 110 121 130 136 141 148 156 164 170 173 173 172 170 170 171 176 182 187 188 182 174 167 161 158 158 159 159 155 149 143 138 135 133 132 132 132 131 128 125 120 116 113 110 108 106 104 102 100 98 96 92 87 83 80 80 84 88 92
143 140 144 135 119 104 96 109 130 145 151 148 143 137 130 120 115 113 113 115 118 121 122 117 109 102 97 100 108 118 129 136 143 150 157 164 168 169 170 170 170 172 177 184 190 194 194 186 178 172 167 165 165 166 166 161 155 149 146 145 143 142 141 140 137 133 127 122 119 116 113 110 106 103 100 98 98 98 96 93 88 84 80 80 81 81
146 148 155 152 144 134 121 114 127 151 163 163 160 155 148 139 130 119 113 115 124 137 143 135 125 115 107 107 113 122 133 143 150 156 161 164 165 165 164 166 170 176 184 194 202 203 200 188 180 174 170 169 169 169 168 163 158 154 152 151 150 148 146 144 141 136 131 127 124 121 118 114 109 104 100 96 95 95 96 96 93 89 85 82 80 80
147 149 152 154 150 142 131 130 136 154 178 188 181 169 156 147 142 137 136 141 148 155 157 143 134 127 121 121 124 130 138 145 149 150 149 146 148 152 149 152 162 176 192 208 218 216 207 190 180 174 171 171 171 170 168 164 160 157 156 155 153 150 148 146 143 139 134 131 128 126 122 117 112 107 102 98 95 93 93 94 93 92 88 85 82 80
145 147 147 148 141 125 114 121 129 144 169 181 183 172 159 151 148 147 152 156 158 159 159 138 130 129 132 136 140 142 144 145 144 141 136 131 132 134 131 134 145 168 196 222 235 233 218 190 179 173 170 170 170 169 166 163 161 159 158 157 154 151 149 147 145 141 138 135 133 129 124 119 114 110 106 102 98 95 92 91 90 89 88 86 83 80
144 145 146 144 135 122 106 104 109 124 152 165 171 173 176 168 158 153 156 159 161 161 159 138 110 108 125 137 143 147 151 151 148 144 136 133 131 131 130 133 143 163 191 223 239 236 218 188 177 171 169 169 168 167 164 163 161 161 160 157 154 152 150 149 147 144 141 139 136 132 126 121 116 113 110 107 104 100 96 93 90 89 88 86 83 80
142 142 142 140 136 131 124 125 131 145 167 182 185 183 178 173 165 157 154 157 159 159 154 141 120 91 85 109 131 144 153 153 150 146 142 143 145 146 145 148 154 163 178 203 229 233 216 186 175 170 168 168 166 165 163 162 162 161 160 157 155 153 151 149 148 146 144 141 138 134 128 124 120 117 115 113 110 107 104 101 98 95 93 90 88 85
144 143 143 146 145 143 143 152 160 169 180 191 194 188 170 158 154 152 145 145 146 144 139 136 130 118 91 92 122 146 153 150 145 141 143 149 155 157 155 157 160 166 172 188 206 217 215 186 175 170 169 167 165 164 163 162 162 162 160 158 155 153 151 149 148 146 145 142 139 135 131 127 125 123 121 118 116 114 112 109 106 103 100 96 93 89
152 152 156 160 158 154 155 165 173 179 182 184 182 169 135 139 147 152 148 143 138 133 129 127 124 120 119 137 158 167 162 153 149 148 154 155 158 161 159 156 158 164 173 186 197 204 206 187 177 172 170 169 167 165 165 165 163 162 161 158 156 154 151 149 148 146 145 143 140 137 134 132 130 128 127 124 122 120 118 115 111 108 103 99 94 89
159 161 166 167 163 160 160 168 175 180 179 175 167 157 146 154 160 160 153 147 143 140 139 137 135 135 151 150 165 178 180 164 158 157 159 156 160 170 171 157 158 164 175 187 194 197 196 185 177 172 170 168 166 165 165 166 164 162 160 158 156 154 152 150 148 147 146 144 142 140 138 137 136 134 133 131 129 126 123 121 117 112 107 102 97 92
166 169 171 167 164 161 160 166 174 178 174 169 166 163 162 165 166 163 156 150 149 151 154 153 155 160 169 163 178 189 191 176 166 158 155 154 162 179 187 164 163 165 171 178 181 185 194 185 177 171 170 167 165 164 164 164 163 162 160 158 156 154 152 150 148 148 147 146 145 144 144 143 142 141 139 137 135 133 131 128 125 121 117 113 108 103
174 175 172 168 164 161 157 164 171 176 172 168 165 163 163 165 165 163 159 157 158 161 163 164 166 168 165 171 178 182 184 178 166 156 153 155 159 172 193 173 162 156 153 154 150 153 251 201 180 171 168 165 164 164 164 163 162 161 159 157 155 154 152 151 150 149 149 149 149 149 150 150 149 147 145 143 142 140 139 137 136 134 132 128 125 121
180 179 174 173 167 159 156 163 169 173 173 169 163 158 157 161 163 165 166 167 168 168 165 170 174 176 171 170 165 165 172 173 164 154 155 154 155 162 186 160 144 135 133 130 112 46 321 259 190 172 165 163 163 163 164 163 162 160 158 156 155 154 152 152 151 152 152 152 153 154 155 155 154 153 151 149 148 148 147 148 148 148 148 147 145 142
183 183 181 173 163 157 158 167 172 174 173 165 157 154 158 161 165 169 171 175 177 175 166 170 177 180 172 151 144 150 163 164 159 152 151 146 147 156 179 154 142 134 129 117 85 358 313 278 191 167 161 162 163 163 163 163 161 159 158 156 155 154 153 154 154 154 155 156 157 159 160 160 160 158 157 156 155 156 157 159 161 162 163 163 162 161
185 187 186 171 161 157 161 166 170 170 165 154 150 152 159 162 167 173 176 175 175 174 171 178 180 174 151 139 143 153 163 162 160 154 142 136 137 149 172 151 140 133 125 106 34 328 313 297 202 169 163 163 162 162 162 161 160 159 157 156 155 154 154 155 156 157 158 159 160 162 164 165 165 165 164 163 164 165 168 170 173 174 175 176 176 177
185 184 181 170 162 158 155 157 160 161 156 152 154 160 164 167 171 175 175 173 173 174 176 173 156 120 106 122 140 155 166 167 163 155 139 138 143 156 173 151 133 127 121 109 46 353 350 356 53 161 164 162 161 160 159 159 158 157 156 155 155 155 155 157 159 160 161 162 163 165 168 170 171 172 171 172 173 175 178 181 183 185 186 188 190 192
184 178 170 168 162 153 145 146 150 154 156 159 163 167 168 171 173 174 173 173 169 161 142 113 88 75 75 96 119 143 168 175 165 151 140 147 152 158 164 150 130 121 116 102 65 36 36 31 32 103 150 156 157 156 156 155 155 155 155 154 155 155 156 159 161 162 163 163 165 167 172 176 178 179 180 181 182 185 188 190 193 195 197 199 202 206
180 173 164 165 158 148 140 143 147 153 160 164 164 163 163 165 163 160 160 154 141 123 107 96 88 81 80 97 116 143 183 203 188 159 145 145 145 147 155 147 131 121 111 94 70 61 63 53 37 33 65 141 149 151 152 152 153 153 154 154 155 156 158 160 163 164 164 165 168 172 179 183 186 189 190 191 193 196 198 200 203 205 208 211 214 217
171 167 163 161 154 148 143 146 150 155 160 159 153 145 136 127 116 108 105 108 110 111 113 111 111 111 116 130 144 164 194 217 214 182 149 135 131 133 148 146 134 124 116 102 78 75 80 68 50 36 31 79 127 142 148 150 151 152 154 155 156 158 160 163 165 166 166 168 173 179 187 193 197 199 201 203 205 207 209 212 214 216 219 221 224 226
159 157 154 151 148 146 145 148 152 156 158 154 149 141 134 123 114 108 108 115 122 126 126 129 135 142 143 149 161 175 187 210 224 208 157 132 129 133 146 142 129 122 118 109 88 79 86 76 61 45 36 37 71 118 140 148 150 152 154 156 157 160 162 163 165 166 165 168 175 183 192 199 202 204 207 209 212 215 219 220 223 226 229 231 232 233
149 147 146 146 146 146 147 150 153 156 157 154 151 147 142 133 129 130 141 148 147 145 144 149 151 150 148 159 169 175 177 191 212 217 173 132 129 135 149 142 129 122 118 108 88 76 81 75 63 48 41 26 21 44 115 134 142 147 149 150 152 154 156 156 156 156 153 156 161 169 178 185 187 188 191 194 199 205 213 221 228 234 237 239 237 237
147 148 148 148 148 148 149 152 155 157 157 155 153 151 147 143 145 153 164 160 156 153 156 160 159 157 159 169 171 169 172 185 198 204 181 133 129 134 147 141 132 125 120 111 90 73 70 65 55 44 38 30 23 34 66 98 117 127 130 131 133 135 136 137 136 135 133 134 137 142 147 149 149 148 146 148 150 152 161 180 221 240 246 246 245 245
148 149 151 152 152 151 152 154 157 159 159 157 157 157 156 156 160 164 165 158 156 159 166 167 165 161 158 156 151 152 175 191 197 192 170 133 128 133 141 139 137 133 126 120 104 79 63 55 45 37 36 39 38 39 46 66 87 101 105 108 110 111 114 115 116 117 117 119 121 125 128 130 129 127 124 123 121 117 112 100 276 265 260 258 261 268
149 151 154 155 155 154 154 156 159 161 162 161 162 163 165 166 166 163 156 156 160 166 170 169 165 158 148 137 135 150 191 200 198 187 167 138 132 135 140 144 147 148 143 135 126 111 86 64 49 41 44 49 50 47 43 51 65 79 88 93 94 96 99 101 103 105 107 109 111 114 116 118 117 116 114 110 104 94 66 346 304 284 270 261 258 260
147 150 154 156 156 155 154 156 159 162 163 163 164 166 168 167 163 157 153 160 166 170 170 167 163 159 154 148 154 169 189 191 191 186 171 143 135 139 147 149 155 160 162 150 145 142 139 123 87 63 55 60 60 58 54 57 64 73 83 85 85 87 91 95 97 99 100 102 103 104 104 104 103 101 98 90 74 44 358 325 302 284 268 257 247 242
137 139 142 144 144 144 145 149 153 156 158 160 161 161 161 159 156 155 157 165 168 169 166 163 162 162 166 168 171 173 173 171 177 179 169 141 131 137 150 150 154 161 170 157 153 152 146 145 137 118 91 80 73 68 64 66 72 82 93 93 92 93 97 100 101 101 102 102 101 100 99 96 93 88 82 68 45 10 341 327 311 298 290 280 270 259
125 123 122 122 122 124 128 133 137 139 142 143 144 144 144 143 144 148 155 161 163 164 162 159 159 162 169 172 170 161 147 153 166 171 164 139 128 135 149 149 151 151 142 102 126 138 132 134 134 130 122 108 95 84 77 76 79 88 101 104 104 107 112 114 114 115 118 116 116 115 114 107 103 99 85 61 21 347 331 325 318 313 309 307 299 292
119 118 117 116 115 115 116 118 120 122 123 124 125 125 125 125 126 127 129 133 139 146 152 155 158 161 163 161 151 132 124 145 159 163 157 138 131 138 148 151 152 150 143 132 110 101 104 120 126 130 127 119 108 97 91 87 85 87 93 103 109 116 121 124 127 130 134 136 138 139 137 136 140 146 143 135 341 325 320 316 312 309 304 306 308 309
119 120 120 119 118 116 115 114 114 114 114 115 116 117 116 114 111 107 102 96 92 92 101 123 143 153 158 155 150 144 140 148 156 158 149 138 133 137 147 155 156 154 150 145 136 123 116 125 132 136 133 129 122 114 108 103 97 91 86 93 98 102 104 110 120 130 141 147 148 147 145 152 160 166 168 168 283 309 309 303 299 297 295 295 297 302
124 125 126 126 126 125 124 122 119 117 114 112 111 110 109 106 103 100 96 92 87 82 76 68 67 80 117 138 143 144 144 145 148 149 143 138 136 137 144 155 158 156 152 148 141 134 128 131 135 137 136 136 136 132 128 124 117 108 99 95 93 90 85 83 92 112 135 143 141 136 131 134 143 150 156 223 285 290 289 285 282 282 281 283 283 286
130 132 134 134 133 132 130 127 125 123 121 117 113 109 105 102 100 98 95 93 91 88 83 74 65 58 54 67 92 113 125 128 129 129 125 129 133 137 141 150 156 158 156 150 144 138 130 130 133 138 143 145 145 142 140 141 139 134 121 112 106 101 95 87 81 81 93 106 108 105 101 94 84 53 303 280 276 273 272 268 266 263 265 268 270 272
135 137 138 138 137 134 132 131 130 128 127 124 119 113 107 103 100 97 94 92 91 89 87 80 73 66 62 65 69 75 86 91 93 92 88 101 119 130 134 141 150 157 157 150 145 140 135 135 139 145 152 146 138 135 140 145 148 146 134 123 116 113 112 107 96 86 81 86 87 90 90 86 73 333 283 275 268 263 262 252 245 243 248 255 260 261
138 139 141 142 141 139 137 135 133 130 126 123 119 115 109 103 98 94 92 90 89 88 88 86 82 76 71 71 71 71 72 73 71 67 63 70 96 121 131 136 142 146 144 140 140 140 140 143 146 150 149 139 132 130 136 145 147 144 134 126 122 122 125 119 110 100 93 92 95 98 100 103 126 218 252 256 264 267 269 260 238 222 230 266 269 266
138 139 139 140 138 135 133 132 130 127 125 121 117 113 109 104 98 93 90 89 88 88 89 88 86 82 76 73 70 68 66 63 59 54 50 51 74 110 126 132 135 136 133 130 132 137 140 142 142 141 138 135 135 138 141 146 146 144 140 138 139 140 138 129 120 114 111 109 109 107 103 97 98 276 286 298 304 313 326 345 358 8 14 351 316 295
137 134 133 129 123 117 114 119 122 125 127 125 121 116 114 111 108 104 100 96 94 94 94 92 89 84 77 72 67 62 59 55 51 48 43 48 64 87 109 120 127 130 128 122 118 119 127 129 130 129 128 129 131 133 138 144 149 150 150 146 139 132 130 128 128 129 133 129 122 115 106 92 62 25 359 346 343 356 16 7 355 345 340 331 317 314
135 131 128 123 118 116 115 118 121 124 126 123 121 121 122 121 120 119 117 112 109 108 108 106 103 98 89 79 68 59 53 50 48 46 45 48 59 74 92 105 116 122 121 114 106 100 101 110 117 123 129 130 131 131 132 137 142 144 142 132 124 120 116 124 133 141 144 136 126 116 105 91 66 27 349 313 299 294 74 37 315 303 304 301 302 309
128 125 123 122 122 124 125 125 127 128 126 120 118 119 122 123 123 123 122 120 120 119 118 116 114 110 104 95 82 68 56 50 48 47 47 48 53 63 77 85 96 109 116 112 107 100 92 93 99 111 124 129 130 131 132 132 129 123 117 126 131 134 134 146 154 155 145 134 123 111 95 79 56 335 289 265 247 216 169 193 228 253 269 290 309 326
118 117 117 120 122 125 127 130 131 131 127 121 118 117 119 121 121 121 120 119 119 119 119 118 114 108 103 101 97 88 75 62 54 50 50 50 50 53 59 62 66 74 91 106 112 112 103 93 91 96 107 117 122 126 130 130 128 123 119 126 128 127 126 137 145 148 141 131 118 104 90 75 18 285 263 241 219 194 170 174 186 204 230 258 297 323
115 117 119 123 126 129 131 133 131 128 123 121 119 119 120 121 121 121 121 120 120 121 123 123 117 110 105 107 107 105 97 85 71 60 54 51 51 52 53 54 55 58 64 78 95 110 114 111 108 103 97 104 112 120 127 129 128 125 119 110 99 94 98 113 125 132 128 118 105 91 74 59 295 256 243 222 196 172 158 159 165 172 174 178 195 251
119 122 125 128 130 131 133 132 129 124 120 118 117 117 119 119 120 120 122 122 122 123 126 124 119 116 116 118 118 117 112 104 94 81 69 57 50 48 49 53 56 59 62 62 66 75 92 105 113 114 105 101 103 108 118 125 127 126 123 115 108 104 105 107 109 109 106 99 88 71 35 343 267 239 230 205 169 148 141 144 145 143 137 143 168 202
125 127 129 130 129 129 129 128 126 123 120 118 117 116 116 118 119 119 121 122 123 123 122 116 113 114 118 122 125 125 123 118 112 103 92 79 69 62 59 59 61 63 68 68 67 67 66 70 79 94 108 109 108 108 110 116 121 125 128 127 124 121 117 114 108 101 94 90 83 60 346 318 296 271 298 134 140 141 138 137 136 132 123 133 181 226
128 129 130 130 129 128 128 127 126 123 120 118 116 114 114 118 121 123 122 124 123 121 119 115 114 114 117 121 124 126 124 122 119 114 107 100 91 84 78 77 74 73 73 74 73 71 66 57 51 52 69 97 112 119 119 116 118 122 129 132 129 125 119 117 114 108 100 98 99 97 294 326 27 43 35 13 55 146 138 140 141 142 143 159 192 231
125 126 129 129 129 129 130 129 126 122 120 118 116 115 115 118 120 122 124 124 122 120 119 120 120 120 121 122 123 122 120 119 117 115 113 111 109 105 100 98 94 90 85 81 78 75 69 60 52 46 42 57 89 114 119 117 116 117 123 126 125 122 119 119 119 118 115 118 128 150 234 316 46 62 59 19 9 101 136 141 144 147 153 166 181 202
119 122 126 127 128 129 129 127 124 121 120 119 118 118 119 118 118 118 119 119 118 118 119 122 124 124 124 126 125 124 123 121 119 117 117 119 120 120 117 115 111 106 100 94 89 84 76 64 53 46 41 42 51 80 113 117 116 113 110 112 114 115 117 119 122 125 129 135 144 155 179 210 213 134 80 40 14 13 114 137 137 139 144 157 172 184
117 119 121 123 124 125 125 123 121 120 119 119 120 120 122 121 120 118 116 116 116 117 119 121 123 124 125 126 126 126 126 125 124 123 125 127 128 127 126 126 124 121 116 113 110 107 100 89 69 49 38 34 34 42 90 116 121 117 111 108 107 108 111 115 120 126 133 140 148 156 167 175 154 94 65 50 30 13 21 100 107 107 107 115 133 160